RH
75 70 64 62 69 72 67 54 46 61 52 63 63 55 41 38 37 43 52 67 70 76 54 42 35 28 24 25 23 24 28 29 26
77 78 74 68 66 69 75 67 56 62 68 69 61 50 44 42 37 34 48 60 64 54 52 45 39 35 29 25 22 20 23 21 21
76 75 75 76 61 59 68 79 73 61 66 70 70 58 44 40 27 26 33 43 44 45 44 40 34 29 25 23 20 21 22 20 20
80 79 76 66 59 54 54 70 86 81 63 54 61 65 54 45 31 22 20 20 26 32 35 32 26 24 25 27 26 26 27 26 24
68 68 68 67 67 67 66 62 76 90 87 77 63 57 54 48 37 26 21 19 24 28 27 26 26 30 31 28 27 29 27 23 23
79 74 71 72 72 71 71 73 71 80 93 91 90 76 60 57 48 42 23 30 37 47 44 43 36 35 32 29 23 20 22 22 28
90 86 87 77 76 74 73 73 75 75 79 88 93 95 93 75 57 50 37 37 47 55 57 49 41 35 32 32 24 20 28 32 34
74 89 93 93 86 78 79 82 85 81 79 82 92 93 98 94 69 51 43 44 52 68 59 53 42 31 25 23 22 21 30 32 32
31 59 81 90 89 88 87 89 86 91 90 88 84 86 90 90 89 65 55 50 57 57 60 51 45 33 26 22 19 19 25 24 22
18 21 31 55 77 88 81 81 78 83 87 94 89 85 87 93 84 79 67 62 51 57 55 62 58 46 42 38 26 24 23 18 19
18 17 16 17 27 45 58 65 79 88 95 95 98 96 81 82 81 70 68 67 71 55 57 76 70 57 53 51 43 33 28 20 16
23 21 20 19 17 22 27 46 62 85 90 93 93 90 82 67 72 76 69 66 61 67 68 77 87 70 66 58 53 47 34 26 20
28 27 26 24 25 26 31 30 41 49 63 60 73 64 59 54 65 77 78 81 78 54 48 75 94 90 83 76 62 50 44 36 27
31 30 29 28 29 28 30 38 39 43 54 51 50 44 49 48 62 69 77 85 88 85 74 60 72 94 96 96 85 69 56 42 37
31 30 29 28 28 31 31 32 35 34 40 47 56 53 59 60 62 63 73 80 84 90 85 83 74 77 89 91 92 88 81 62 51
35 30 28 28 27 26 32 33 35 40 40 53 55 66 62 65 62 64 73 76 79 83 88 85 82 82 82 90 93 85 83 82 65
42 36 33 31 30 31 31 37 38 37 43 48 63 57 62 67 68 62 60 66 70 79 88 91 88 83 88 88 93 94 84 72 58
56 47 37 34 34 33 35 36 42 42 46 52 52 54 58 54 67 59 62 64 71 77 91 92 93 92 91 92 89 87 86 80 73
50 50 42 40 39 34 33 35 38 43 44 47 49 59 56 60 61 74 66 68 74 82 87 94 98 97 96 95 93 94 94 93 87
51 53 48 44 41 41 34 33 36 39 43 47 52 53 55 56 59 63 65 71 78 87 83 86 87 94 99 96 98 95 98 97 95